星链-3574 (STARLINK-3574 )

导读 | 星芒AI

STARLINK-3574 是 SpaceX Starlink 卫星互联网项目中的一颗低轨卫星。该卫星属于 Starlink 群体部署计划的一部分,旨在为全球用户提供高速互联网接入服务。它运行在近地轨道,配备先进通信设备,支持宽带数据传输。STARLINK-3574 的发射和运行有助于增强 Starlink 网络的覆盖范围与稳定性,特别是在偏远和网络基础设施薄弱的地区。该卫星遵循 SpaceX 的可持续航天政策,具备自动避撞和任务结束后主动离轨的能力。

基本信息
目录编号:
51874
目录名称:
STARLINK-3574
国际标识:
2022-022Y
轨道中心:
EARTH
卫星名称:
星链-3574
卫星全名:
星链-3574 (STARLINK-3574 )
卫星状态:
在轨 (已飞行1342 天)
发射日期:
2022-03-03 UTC
国别 :
美国 (US)
星等 :
--
轨道信息
数据来源 国际轨道数据
星历时间: 2025-11-03T19:45:04+0800
1天前
查看轨道信息
半长轴: 6917.888km
偏心率: 0.0001536
轨道倾角: 53.217°
近地点辐角 73.686°
升交点赤经 215.659°
平近点角 286.430°
近地点: 538.69km
远地点: 540.816km
周期: 95.438分钟
每日圈数: 15.088378
详细信息
固有亮度:
5
最大亮度:
2.5
卫星平台:
Starlink v1.5
覆盖范围:
全球
运营商:
太空探索技术公司
运营商所在国:
美国
制造商(研发单位):
太空探索技术公司
制造商所在国:
美国
使用方式:
暂无
卫星简介
星链(Starlink)计划是由太空探索技术公司(SpaceX)提出的一个巨型低轨卫星互联网星座项目,计划在2019年至2024年间在太空搭建由约1.2万颗卫星组成的“星链”网络,其中1584颗将部署在地球上空550千米处的近地轨道,并从2020年开始工作。该卫星仍在工作。
2D轨道图
3D轨道图
轨道高度分析图
轨道倾角分析图
轨道综合分析图
查看轨道综合分析图